HAVELSAT (42700 NORAD) Tracking and Keplerian Element Data

This shows tracking and keplerian element data for the satellite.

Feedback or suggestion? Click here.




ElementValue
Catalog42700
NameHAVELSAT
Epoch Orbit8595
Epoch Day319.93824458
Epoch Year2018
RAAN292.9686
Inclination51.6273
Eccentricity0.000558
Argument of Perigee94.7233
Mean Anonmoly265.4408
Mean Motion15.83375344
Decay Rate0.00061789
L11 42700U 98067LH 18319.93824458 .00061789 00000-0 27906-3 0 9996
L22 42700 51.6273 292.9686 0005580 94.7233 265.4408 15.83375344 85956

Live tracking and technical data element details for HAVELSAT (NORAD 42700). HAVELSAT can be tracked NOW for your location showing map with azimuth and elevation plus other details from your city location.

Track the satellite on the map from your city or location and see movement details for azimuth, elevation, latitude, longitude, range, height, and movement on the map or in text.







IsCatalogInMostPopularTable: catalog: 42700, numindb: 146
Update: records affected: 1



GetName: 42700 HAVELSAT

Hit Count: updated at: Fri, 16 Nov 2018 09:43:54 GMT